04-05-2023, 00:00:05,     66,    0.0,    4.7,   0.00,   0.00, 1017.2,   82.8, -999.0
04-05-2023, 00:00:15,     65,    0.0,    4.8,   0.00,   0.00, 1017.3,   82.8, -999.0
04-05-2023, 00:00:25,     65,    0.0,    4.8,   0.00,   0.00, 1017.3,   82.8, -999.0
04-05-2023, 00:00:35,     65,    0.0,    4.8,   0.00,   0.00, 1017.3,   83.0, -999.0
04-05-2023, 00:00:45,     65,    0.0,    4.6,   0.00,   0.00, 1017.3,   83.2, -999.0
04-05-2023, 00:00:55,     66,    0.0,    4.7,   0.00,   0.00, 1017.3,   82.9, -999.0
04-05-2023, 00:01:05,     65,    0.0,    4.8,   0.00,   0.00, 1017.3,   83.1, -999.0
04-05-2023, 00:01:14,     65,    0.0,    4.8,   0.00,   0.00, 1017.3,   83.5, -999.0
04-05-2023, 00:01:25,     65,    0.0,    4.9,   0.00,   0.00, 1017.3,   83.5, -999.0
04-05-2023, 00:01:35,     49,    0.3,    4.8,   0.00,   0.00, 1017.3,   83.3, -999.0
04-05-2023, 00:01:45,     40,    0.7,    4.8,   0.00,   0.00, 1017.3,   83.4, -999.0
04-05-2023, 00:01:54,     41,    0.2,    4.7,   0.00,   0.00, 1017.3,   83.5, -999.0
04-05-2023, 00:02:05,     40,    0.2,    4.8,   0.00,   0.00, 1017.3,   83.6, -999.0
04-05-2023, 00:02:15,     41,    0.0,    4.8,   0.00,   0.00, 1017.3,   83.3, -999.0
04-05-2023, 00:02:24,     40,    0.0,    4.7,   0.00,   0.00, 1017.3,   83.4, -999.0
04-05-2023, 00:02:34,     40,    0.0,    4.8,   0.00,   0.00, 1017.3,   83.8, -999.0
04-05-2023, 00:02:45,     40,    0.0,    4.8,   0.00,   0.00, 1017.3,   84.0, -999.0
04-05-2023, 00:02:54,     40,    0.0,    4.9,   0.00,   0.00, 1017.3,   83.8, -999.0
04-05-2023, 00:03:04,     40,    0.0,    4.9,   0.00,   0.00, 1017.3,   83.6, -999.0
04-05-2023, 00:03:15,     40,    0.0,    4.9,   0.00,   0.00, 1017.3,   83.5, -999.0
04-05-2023, 00:03:25,     40,    0.0,    4.8,   0.00,   0.00, 1017.2,   83.6, -999.0
04-05-2023, 00:03:34,     40,    0.0,    4.8,   0.00,   0.00, 1017.3,   83.8, -999.0
04-05-2023, 00:03:44,     32,    0.0,    4.8,   0.00,   0.00, 1017.3,   83.6, -999.0
04-05-2023, 00:03:55,     41,    0.0,    4.8,   0.00,   0.00, 1017.2,   83.6, -999.0
04-05-2023, 00:04:04,     40,    0.0,    4.7,   0.00,   0.00, 1017.3,   83.5, -999.0
04-05-2023, 00:04:14,     40,    0.0,    4.8,   0.00,   0.00, 1017.3,   83.4, -999.0
04-05-2023, 00:04:24,     40,    0.0,    4.8,   0.00,   0.00, 1017.3,   83.3, -999.0
04-05-2023, 00:04:35,     40,    0.0,    4.8,   0.00,   0.00, 1017.3,   83.3, -999.0
04-05-2023, 00:04:44,     40,    0.0,    4.7,   0.00,   0.00, 1017.3,   83.3, -999.0
04-05-2023, 00:04:54,     40,    0.0,    4.7,   0.00,   0.00, 1017.3,   83.2, -999.0
04-05-2023, 00:05:04,     40,    0.0,    4.7,   0.00,   0.00, 1017.3,   83.5, -999.0
04-05-2023, 00:05:14,     40,    0.0,    4.8,   0.00,   0.00, 1017.3,   83.8, -999.0
04-05-2023, 00:05:24,     40,    0.0,    4.7,   0.00,   0.00, 1017.3,   83.9, -999.0
04-05-2023, 00:05:34,     40,    0.0,    4.8,   0.00,   0.00, 1017.3,   84.1, -999.0
04-05-2023, 00:05:44,     40,    0.0,    4.7,   0.00,   0.00, 1017.3,   83.8, -999.0
04-05-2023, 00:05:54,     40,    0.0,    4.7,   0.00,   0.00, 1017.3,   83.7, -999.0
04-05-2023, 00:06:04,     41,    0.0,    4.7,   0.00,   0.00, 1017.3,   83.7, -999.0
04-05-2023, 00:06:15,     40,    1.5,    4.7,   0.00,   0.00, 1017.4,   84.1, -999.0
04-05-2023, 00:06:24,     41,    0.6,    4.7,   0.00,   0.00, 1017.4,   84.0, -999.0
04-05-2023, 00:06:34,     41,    0.0,    4.6,   0.00,   0.00, 1017.3,   84.2, -999.0
04-05-2023, 00:06:44,     41,    0.0,    4.6,   0.00,   0.00, 1017.3,   84.5, -999.0
04-05-2023, 00:06:54,     41,    0.0,    4.8,   0.00,   0.00, 1017.3,   85.4, -999.0
04-05-2023, 00:07:04,     41,    0.0,    4.8,   0.00,   0.00, 1017.3,   85.5, -999.0
04-05-2023, 00:07:14,     41,    0.0,    4.8,   0.00,   0.00, 1017.3,   85.2, -999.0
04-05-2023, 00:07:24,     41,    0.0,    4.9,   0.00,   0.00, 1017.3,   85.7, -999.0
04-05-2023, 00:07:34,     41,    0.0,    4.9,   0.00,   0.00, 1017.2,   85.4, -999.0
04-05-2023, 00:07:44,     41,    0.0,    4.9,   0.00,   0.00, 1017.3,   85.0, -999.0
04-05-2023, 00:07:54,     41,    0.0,    4.9,   0.00,   0.00, 1017.3,   84.6, -999.0
04-05-2023, 00:08:04,     41,    0.0,    4.8,   0.00,   0.00, 1017.3,   84.2, -999.0
04-05-2023, 00:08:14,     41,    0.0,    4.8,   0.00,   0.00, 1017.3,   84.1, -999.0
04-05-2023, 00:08:24,     41,    0.0,    4.7,   0.00,   0.00, 1017.2,   84.0, -999.0
04-05-2023, 00:08:34,     41,    0.0,    4.8,   0.00,   0.00, 1017.3,   84.1, -999.0
04-05-2023, 00:08:44,     41,    0.0,    4.9,   0.00,   0.00, 1017.3,   84.5, -999.0
04-05-2023, 00:08:54,     41,    0.0,    4.9,   0.00,   0.00, 1017.3,   84.5, -999.0
04-05-2023, 00:09:04,     41,    0.2,    4.9,   0.00,   0.00, 1017.3,   84.4, -999.0
04-05-2023, 00:09:14,     78,    0.7,    4.9,   0.00,   0.00, 1017.3,   84.4, -999.0
04-05-2023, 00:09:24,     78,    0.0,    4.7,   0.00,   0.00, 1017.3,   83.9, -999.0
04-05-2023, 00:09:34,     78,    0.0,    4.7,   0.00,   0.00, 1017.2,   83.9, -999.0
04-05-2023, 00:09:44,     78,    0.0,    4.7,   0.00,   0.00, 1017.3,   84.2, -999.0
04-05-2023, 00:09:53,     78,    0.0,    4.7,   0.00,   0.00, 1017.3,   84.5, -999.0
04-05-2023, 00:10:04,     79,    0.0,    4.7,   0.00,   0.00, 1017.3,   84.7, -999.0
04-05-2023, 00:10:14,     78,    0.1,    4.8,   0.00,   0.00, 1017.3,   85.1, -999.0
04-05-2023, 00:10:24,     78,    0.3,    4.8,   0.00,   0.00, 1017.3,   85.2, -999.0
04-05-2023, 00:10:34,     77,    0.0,    4.7,   0.00,   0.00, 1017.3,   85.0, -999.0
04-05-2023, 00:10:44,     78,    0.0,    4.8,   0.00,   0.00, 1017.3,   85.0, -999.0
04-05-2023, 00:10:54,     77,    0.5,    4.8,   0.00,   0.00, 1017.3,   85.4, -999.0
04-05-2023, 00:11:03,     77,    0.7,    4.8,   0.00,   0.00, 1017.4,   85.4, -999.0
04-05-2023, 00:11:14,     76,    0.1,    4.7,   0.00,   0.00, 1017.3,   84.9, -999.0
04-05-2023, 00:11:24,     76,    0.0,    4.6,   0.00,   0.00, 1017.3,   84.7, -999.0
04-05-2023, 00:11:33,     76,    0.0,    4.7,   0.00,   0.00, 1017.2,   85.1, -999.0
04-05-2023, 00:11:43,     76,    0.0,    4.6,   0.00,   0.00, 1017.2,   85.3, -999.0
04-05-2023, 00:11:54,     22,    0.2,    4.7,   0.00,   0.00, 1017.2,   85.3, -999.0
04-05-2023, 00:12:04,     22,    0.2,    4.7,   0.00,   0.00, 1017.3,   85.4, -999.0
04-05-2023, 00:12:13,     22,    0.0,    4.6,   0.00,   0.00, 1017.2,   85.2, -999.0
04-05-2023, 00:12:23,     23,    0.0,    4.6,   0.00,   0.00, 1017.3,   85.3, -999.0
04-05-2023, 00:12:34,     35,    0.0,    4.6,   0.00,   0.00, 1017.3,   85.6, -999.0
04-05-2023, 00:12:43,     64,    0.2,    4.7,   0.00,   0.00, 1017.3,   86.0, -999.0
04-05-2023, 00:12:53,     63,    0.1,    4.8,   0.00,   0.00, 1017.3,   86.7, -999.0
04-05-2023, 00:13:03,     68,    0.4,    4.9,   0.00,   0.00, 1017.3,   87.3, -999.0
04-05-2023, 00:13:13,     55,    1.3,    4.9,   0.00,   0.00, 1017.3,   87.6, -999.0
04-05-2023, 00:13:23,     53,    1.3,    4.8,   0.00,   0.00, 1017.3,   87.1, -999.0
04-05-2023, 00:13:33,     53,    0.1,    4.8,   0.00,   0.00, 1017.3,   86.5, -999.0
04-05-2023, 00:13:43,     53,    0.2,    4.8,   0.00,   0.00, 1017.3,   86.5, -999.0
04-05-2023, 00:13:53,     53,    0.2,    4.7,   0.00,   0.00, 1017.2,   86.1, -999.0
04-05-2023, 00:14:03,     52,    0.0,    4.7,   0.00,   0.00, 1017.2,   86.0, -999.0
04-05-2023, 00:14:13,     53,    0.0,    4.6,   0.00,   0.00, 1017.3,   86.1, -999.0
04-05-2023, 00:14:23,     54,    0.0,    4.6,   0.00,   0.00, 1017.2,   86.0, -999.0
04-05-2023, 00:14:33,     53,    0.0,    4.7,   0.00,   0.00, 1017.2,   86.2, -999.0
04-05-2023, 00:14:43,     53,    0.0,    4.7,   0.00,   0.00, 1017.2,   86.3, -999.0
04-05-2023, 00:14:53,     53,    0.0,    4.6,   0.00,   0.00, 1017.2,   86.5, -999.0
04-05-2023, 00:15:03,     53,    0.0,    4.6,   0.00,   0.00, 1017.2,   86.4, -999.0
04-05-2023, 00:15:13,     53,    0.0,    4.6,   0.00,   0.00, 1017.2,   86.4, -999.0
04-05-2023, 00:15:23,     53,    0.0,    4.6,   0.00,   0.00, 1017.2,   86.6, -999.0
04-05-2023, 00:15:33,     53,    0.0,    4.6,   0.00,   0.00, 1017.2,   86.6, -999.0
04-05-2023, 00:15:43,     53,    0.0,    4.7,   0.00,   0.00, 1017.2,   86.7, -999.0
04-05-2023, 00:15:53,     53,    0.0,    4.7,   0.00,   0.00, 1017.2,   86.7, -999.0
04-05-2023, 00:16:03,     53,    0.0,    4.6,   0.00,   0.00, 1017.2,   86.6, -999.0
04-05-2023, 00:16:13,     53,    0.1,    4.6,   0.00,   0.00, 1017.3,   86.6, -999.0
04-05-2023, 00:16:23,     53,    0.0,    4.6,   0.00,   0.00, 1017.2,   86.4, -999.0
04-05-2023, 00:16:33,     53,    0.0,    4.4,   0.00,   0.00, 1017.2,   86.7, -999.0
04-05-2023, 00:16:44,     53,    0.0,    4.5,   0.00,   0.00, 1017.2,   87.1, -999.0
04-05-2023, 00:16:53,     53,    0.0,    4.6,   0.00,   0.00, 1017.3,   87.5, -999.0
04-05-2023, 00:17:03,     53,    0.0,    4.7,   0.00,   0.00, 1017.2,   87.9, -999.0
04-05-2023, 00:17:13,     53,    0.0,    4.7,   0.00,   0.00, 1017.2,   88.1, -999.0
04-05-2023, 00:17:23,     53,    0.0,    4.7,   0.00,   0.00, 1017.2,   88.0, -999.0
04-05-2023, 00:17:33,     53,    0.0,    4.7,   0.00,   0.00, 1017.2,   87.8, -999.0
04-05-2023, 00:17:43,     53,    0.2,    4.7,   0.00,   0.00, 1017.2,   87.8, -999.0
04-05-2023, 00:17:53,     53,    0.8,    4.7,   0.00,   0.00, 1017.3,   87.8, -999.0
04-05-2023, 00:18:03,     53,    0.8,    4.7,   0.00,   0.00, 1017.2,   87.4, -999.0
04-05-2023, 00:18:13,     53,    0.0,    4.5,   0.00,   0.00, 1017.2,   87.1, -999.0
04-05-2023, 00:18:23,     53,    0.0,    4.5,   0.00,   0.00, 1017.1,   87.2, -999.0
04-05-2023, 00:18:33,     53,    0.0,    4.5,   0.00,   0.00, 1017.1,   87.3, -999.0
04-05-2023, 00:18:43,     53,    0.0,    4.6,   0.00,   0.00, 1017.1,   87.7, -999.0
04-05-2023, 00:18:52,     53,    0.0,    4.5,   0.00,   0.00, 1017.2,   87.9, -999.0
04-05-2023, 00:19:03,     53,    0.0,    4.6,   0.00,   0.00, 1017.2,   88.5, -999.0
04-05-2023, 00:19:13,     53,    0.0,    4.8,   0.00,   0.00, 1017.1,   89.0, -999.0
04-05-2023, 00:19:23,     53,    0.0,    4.7,   0.00,   0.00, 1017.1,   89.5, -999.0
04-05-2023, 00:19:32,     53,    0.0,    4.7,   0.00,   0.00, 1017.1,   89.7, -999.0
04-05-2023, 00:19:43,     53,    0.0,    4.7,   0.00,   0.00, 1017.1,   89.6, -999.0
04-05-2023, 00:19:53,     53,    0.0,    4.8,   0.00,   0.00, 1017.1,   89.9, -999.0
04-05-2023, 00:20:02,     53,    0.0,    4.7,   0.00,   0.00, 1017.1,   90.1, -999.0
04-05-2023, 00:20:12,     54,    0.0,    4.8,   0.00,   0.00, 1017.1,   89.6, -999.0
04-05-2023, 00:20:23,     53,    0.0,    4.8,   0.00,   0.00, 1017.1,   89.4, -999.0
04-05-2023, 00:20:33,     53,    0.0,    4.8,   0.00,   0.00, 1017.1,   88.9, -999.0
04-05-2023, 00:20:42,     53,    0.0,    4.7,   0.00,   0.00, 1017.1,   88.5, -999.0
04-05-2023, 00:20:53,     53,    0.0,    4.6,   0.00,   0.00, 1017.1,   88.3, -999.0
04-05-2023, 00:21:03,     53,    0.0,    4.6,   0.00,   0.00, 1017.1,   88.3, -999.0
04-05-2023, 00:21:12,     46,    0.0,    4.7,   0.00,   0.00, 1017.1,   88.4, -999.0
04-05-2023, 00:21:22,     53,    0.0,    4.6,   0.00,   0.00, 1017.1,   88.3, -999.0
04-05-2023, 00:21:33,     52,    0.0,    4.7,   0.00,   0.00, 1017.1,   88.3, -999.0
04-05-2023, 00:21:42,     53,    0.0,    4.6,   0.00,   0.00, 1017.1,   88.3, -999.0
04-05-2023, 00:21:52,     53,    0.0,    4.7,   0.00,   0.00, 1017.1,   88.4, -999.0
04-05-2023, 00:22:02,     53,    0.0,    4.6,   0.00,   0.00, 1017.1,   88.3, -999.0
04-05-2023, 00:22:13,     53,    0.0,    4.5,   0.00,   0.00, 1017.2,   88.4, -999.0
04-05-2023, 00:22:22,     53,    0.0,    4.6,   0.00,   0.00, 1017.1,   88.3, -999.0
04-05-2023, 00:22:32,     53,    0.0,    4.4,   0.00,   0.00, 1017.1,   88.7, -999.0
04-05-2023, 00:22:42,     53,    0.0,    4.4,   0.00,   0.00, 1017.1,   89.2, -999.0
04-05-2023, 00:22:52,     53,    0.0,    4.6,   0.00,   0.00, 1017.1,   89.3, -999.0
04-05-2023, 00:23:02,     52,    0.0,    4.6,   0.00,   0.00, 1017.1,   89.2, -999.0
04-05-2023, 00:23:12,     53,    0.0,    4.6,   0.00,   0.00, 1017.1,   89.2, -999.0
04-05-2023, 00:23:22,     53,    0.0,    4.6,   0.00,   0.00, 1017.1,   89.2, -999.0
04-05-2023, 00:23:32,     53,    0.0,    4.6,   0.00,   0.00, 1017.1,   89.5, -999.0
04-05-2023, 00:23:42,     53,    0.0,    4.7,   0.00,   0.00, 1017.1,   89.4, -999.0
04-05-2023, 00:23:52,     53,    0.0,    4.7,   0.00,   0.00, 1017.1,   89.5, -999.0
04-05-2023, 00:24:02,     53,    0.0,    4.7,   0.00,   0.00, 1017.1,   90.0, -999.0
04-05-2023, 00:24:12,     53,    0.0,    4.7,   0.00,   0.00, 1017.1,   90.2, -999.0
04-05-2023, 00:24:22,     52,    0.0,    4.7,   0.00,   0.00, 1017.1,   90.1, -999.0
04-05-2023, 00:24:32,     53,    0.0,    4.7,   0.00,   0.00, 1017.1,   90.0, -999.0
04-05-2023, 00:24:42,     53,    0.0,    4.7,   0.00,   0.00, 1017.0,   89.7, -999.0
04-05-2023, 00:24:52,     52,    0.0,    4.7,   0.00,   0.00, 1017.1,   89.4, -999.0
04-05-2023, 00:25:02,     53,    0.0,    4.6,   0.00,   0.00, 1017.1,   89.2, -999.0
04-05-2023, 00:25:12,     53,    0.0,    4.6,   0.00,   0.00, 1017.1,   88.9, -999.0
04-05-2023, 00:25:22,     53,    0.0,    4.6,   0.00,   0.00, 1017.0,   88.8, -999.0
04-05-2023, 00:25:32,     53,    0.0,    4.5,   0.00,   0.00, 1017.0,   89.0, -999.0
04-05-2023, 00:25:42,     53,    0.0,    4.6,   0.00,   0.00, 1017.1,   89.2, -999.0
04-05-2023, 00:25:52,     53,    0.3,    4.6,   0.00,   0.00, 1017.1,   89.3, -999.0
04-05-2023, 00:26:02,     52,    0.0,    4.4,   0.00,   0.00, 1017.0,   89.0, -999.0
04-05-2023, 00:26:12,     53,    0.0,    4.4,   0.00,   0.00, 1017.0,   89.2, -999.0
04-05-2023, 00:26:22,     53,    0.0,    4.4,   0.00,   0.00, 1017.0,   89.2, -999.0
04-05-2023, 00:26:32,     53,    0.0,    4.3,   0.00,   0.00, 1017.0,   89.6, -999.0
04-05-2023, 00:26:42,     53,    0.0,    4.4,   0.00,   0.00, 1017.0,   89.8, -999.0
04-05-2023, 00:26:52,     53,    0.0,    4.5,   0.00,   0.00, 1017.0,   90.2, -999.0
04-05-2023, 00:27:02,     52,    0.0,    4.5,   0.00,   0.00, 1017.0,   90.7, -999.0
04-05-2023, 00:27:12,     53,    0.0,    4.6,   0.00,   0.00, 1017.0,   91.0, -999.0
04-05-2023, 00:27:22,     53,    0.0,    4.5,   0.00,   0.00, 1017.0,   91.4, -999.0
04-05-2023, 00:27:32,     53,    0.0,    4.5,   0.00,   0.00, 1017.0,   91.4, -999.0
04-05-2023, 00:27:42,     52,    0.0,    4.5,   0.00,   0.00, 1017.0,   91.3, -999.0
04-05-2023, 00:27:51,     52,    0.0,    4.5,   0.00,   0.00, 1017.0,   91.1, -999.0
04-05-2023, 00:28:02,     53,    0.0,    4.4,   0.00,   0.00, 1017.0,   91.1, -999.0
04-05-2023, 00:28:12,     52,    0.0,    4.5,   0.00,   0.00, 1017.0,   91.1, -999.0
04-05-2023, 00:28:22,     53,    0.0,    4.5,   0.00,   0.00, 1017.0,   91.2, -999.0
04-05-2023, 00:28:31,     53,    0.0,    4.4,   0.00,   0.00, 1017.0,   91.1, -999.0
04-05-2023, 00:28:42,     53,    0.0,    4.3,   0.00,   0.00, 1017.0,   90.8, -999.0
04-05-2023, 00:28:52,     53,    0.0,    4.4,   0.00,   0.00, 1016.9,   90.8, -999.0
04-05-2023, 00:29:01,     53,    0.0,    4.4,   0.00,   0.00, 1017.0,   91.1, -999.0
04-05-2023, 00:29:11,     53,    0.0,    4.4,   0.00,   0.00, 1016.9,   91.5, -999.0
04-05-2023, 00:29:22,     53,    0.0,    4.4,   0.00,   0.00, 1017.0,   91.8, -999.0
04-05-2023, 00:29:32,     52,    0.0,    4.4,   0.00,   0.00, 1017.0,   92.0, -999.0
04-05-2023, 00:29:41,     53,    0.0,    4.0,   0.00,   0.00, 1016.9,   91.9, -999.0
04-05-2023, 00:29:51,     53,    0.0,    4.3,   0.00,   0.00, 1017.0,   91.7, -999.0
04-05-2023, 00:30:02,     53,    0.0,    4.3,   0.00,   0.00, 1017.0,   91.8, -999.0
04-05-2023, 00:30:11,     53,    0.0,    4.4,   0.00,   0.00, 1017.0,   92.2, -999.0
04-05-2023, 00:30:21,     53,    0.0,    4.4,   0.00,   0.00, 1017.0,   92.7, -999.0
04-05-2023, 00:30:31,     53,    0.0,    4.4,   0.00,   0.00, 1016.9,   93.2, -999.0
04-05-2023, 00:30:42,     53,    0.1,    4.5,   0.00,   0.00, 1017.0,   94.0, -999.0
04-05-2023, 00:30:51,     66,    0.1,    4.6,   0.00,   0.00, 1017.0,   94.6, -999.0
04-05-2023, 00:31:01,     63,    0.3,    4.6,   0.00,   0.00, 1017.0,   94.4, -999.0
04-05-2023, 00:31:11,     63,    0.0,    4.4,   0.00,   0.00, 1016.9,   93.9, -999.0
04-05-2023, 00:31:21,     63,    0.0,    4.5,   0.00,   0.00, 1016.9,   94.2, -999.0
04-05-2023, 00:31:31,     63,    0.0,    4.6,   0.00,   0.00, 1016.9,   94.7, -999.0
04-05-2023, 00:31:41,     63,    0.0,    4.6,   0.00,   0.00, 1016.9,   94.7, -999.0
04-05-2023, 00:31:51,     63,    0.0,    4.6,   0.00,   0.00, 1016.9,   94.5, -999.0
04-05-2023, 00:32:01,     63,    0.0,    4.7,   0.00,   0.00, 1016.9,   94.7, -999.0
04-05-2023, 00:32:11,     63,    0.1,    4.7,   0.00,   0.00, 1017.0,   94.5, -999.0
04-05-2023, 00:32:21,     64,    0.7,    4.7,   0.00,   0.00, 1017.0,   94.1, -999.0
04-05-2023, 00:32:31,     64,    0.3,    4.6,   0.00,   0.00, 1017.0,   93.5, -999.0
04-05-2023, 00:32:41,     63,    0.0,    4.6,   0.00,   0.00, 1017.0,   93.2, -999.0
04-05-2023, 00:32:51,     63,    0.0,    4.4,   0.00,   0.00, 1016.9,   93.2, -999.0
04-05-2023, 00:33:01,     63,    0.0,    4.3,   0.00,   0.00, 1016.9,   93.0, -999.0
04-05-2023, 00:33:11,     63,    0.0,    4.4,   0.00,   0.00, 1016.9,   93.1, -999.0
04-05-2023, 00:33:21,     64,    0.0,    4.4,   0.00,   0.00, 1016.9,   93.2, -999.0
04-05-2023, 00:33:31,     63,    0.0,    4.3,   0.00,   0.00, 1016.9,   93.5, -999.0
04-05-2023, 00:33:41,     63,    0.0,    4.4,   0.00,   0.00, 1016.9,   93.6, -999.0
04-05-2023, 00:33:51,     63,    0.0,    4.5,   0.00,   0.00, 1016.9,   94.0, -999.0
04-05-2023, 00:34:01,     63,    0.0,    4.5,   0.00,   0.00, 1016.9,   94.3, -999.0
04-05-2023, 00:34:11,     61,    0.0,    4.5,   0.00,   0.00, 1016.9,   94.5, -999.0
04-05-2023, 00:34:21,     63,    0.0,    4.4,   0.00,   0.00, 1016.9,   94.2, -999.0
04-05-2023, 00:34:31,     63,    0.0,    4.4,   0.00,   0.00, 1016.9,   93.8, -999.0
04-05-2023, 00:34:41,     63,    0.0,    4.4,   0.00,   0.00, 1016.9,   93.8, -999.0
04-05-2023, 00:34:51,     63,    0.0,    4.3,   0.00,   0.00, 1016.9,   93.7, -999.0
04-05-2023, 00:35:01,     63,    0.0,    4.4,   0.00,   0.00, 1016.9,   93.8, -999.0
04-05-2023, 00:35:11,     63,    0.0,    4.3,   0.00,   0.00, 1016.9,   94.2, -999.0
04-05-2023, 00:35:21,     63,    0.0,    4.3,   0.00,   0.00, 1016.9,   94.2, -999.0
04-05-2023, 00:35:31,     63,    0.0,    4.3,   0.00,   0.00, 1016.9,   94.5, -999.0
04-05-2023, 00:35:41,     63,    0.0,    4.4,   0.00,   0.00, 1016.9,   95.1, -999.0
04-05-2023, 00:35:51,     63,    0.0,    4.4,   0.00,   0.00, 1016.9,   95.1, -999.0
04-05-2023, 00:36:01,     63,    0.0,    4.4,   0.00,   0.00, 1016.9,   95.0, -999.0
04-05-2023, 00:36:11,     63,    0.0,    4.4,   0.00,   0.00, 1016.9,   94.8, -999.0
04-05-2023, 00:36:21,     63,    0.0,    4.3,   0.00,   0.00, 1016.9,   94.7, -999.0
04-05-2023, 00:36:31,     63,    0.0,    4.3,   0.00,   0.00, 1016.9,   95.0, -999.0
04-05-2023, 00:36:41,     63,    0.0,    4.3,   0.00,   0.00, 1016.9,   95.0, -999.0
04-05-2023, 00:36:51,     64,    0.0,    4.3,   0.00,   0.00, 1016.9,   95.1, -999.0
04-05-2023, 00:37:00,     63,    0.0,    4.3,   0.00,   0.00, 1016.9,   95.3, -999.0
04-05-2023, 00:37:11,     63,    0.0,    4.3,   0.00,   0.00, 1016.9,   95.7, -999.0
04-05-2023, 00:37:21,     63,    0.0,    4.3,   0.00,   0.00, 1016.9,   95.8, -999.0
04-05-2023, 00:37:31,     63,    0.0,    4.4,   0.00,   0.00, 1016.9,   95.8, -999.0
04-05-2023, 00:37:41,     63,    0.0,    4.3,   0.00,   0.00, 1016.9,   95.8, -999.0
04-05-2023, 00:37:51,     62,    0.0,    4.3,   0.00,   0.00, 1016.9,   95.7, -999.0
04-05-2023, 00:38:01,     63,    0.0,    4.3,   0.00,   0.00, 1016.9,   95.8, -999.0
04-05-2023, 00:38:10,     63,    0.0,    4.3,   0.00,   0.00, 1016.9,   95.7, -999.0
04-05-2023, 00:38:21,     63,    0.0,    4.3,   0.00,   0.00, 1016.9,   96.0, -999.0
04-05-2023, 00:38:31,     63,    0.1,    4.3,   0.00,   0.00, 1017.0,   96.3, -999.0
04-05-2023, 00:38:40,     64,    0.3,    4.4,   0.00,   0.00, 1017.0,   96.6, -999.0
04-05-2023, 00:38:50,     63,    0.0,    4.3,   0.00,   0.00, 1016.9,   96.4, -999.0
04-05-2023, 00:39:01,     63,    0.0,    4.2,   0.00,   0.00, 1016.9,   96.1, -999.0
04-05-2023, 00:39:10,     63,    0.0,    4.3,   0.00,   0.00, 1016.9,   96.1, -999.0
04-05-2023, 00:39:20,     63,    0.0,    4.2,   0.00,   0.00, 1016.9,   96.2, -999.0
04-05-2023, 00:39:30,     63,    0.0,    4.1,   0.00,   0.00, 1016.9,   96.6, -999.0
04-05-2023, 00:39:41,     63,    0.0,    4.3,   0.00,   0.00, 1016.9,   96.9, -999.0
04-05-2023, 00:39:50,     64,    0.0,    4.2,   0.00,   0.00, 1016.9,   97.3, -999.0
04-05-2023, 00:40:00,     34,    0.6,    4.3,   0.00,   0.00, 1016.9,   97.9, -999.0
04-05-2023, 00:40:11,     33,    0.6,    4.4,   0.00,   0.00, 1017.0,   98.2, -999.0
04-05-2023, 00:40:20,     33,    0.2,    4.4,   0.00,   0.00, 1017.0,   98.4, -999.0
04-05-2023, 00:40:30,      8,    0.3,    4.4,   0.00,   0.00, 1017.0,   98.4, -999.0
04-05-2023, 00:40:40,     13,    0.0,    4.3,   0.00,   0.00, 1016.9,   98.7, -999.0
04-05-2023, 00:40:50,     13,    0.0,    4.3,   0.00,   0.00, 1016.9,   98.7, -999.0
04-05-2023, 00:41:00,     13,    0.0,    4.4,   0.00,   0.00, 1016.9,   98.7, -999.0
04-05-2023, 00:41:10,     15,    0.0,    4.5,   0.00,   0.00, 1016.9,   98.7, -999.0
04-05-2023, 00:41:20,     15,    0.0,    4.5,   0.00,   0.00, 1016.9,   98.6, -999.0
04-05-2023, 00:41:30,     16,    0.0,    4.7,   0.00,   0.00, 1016.9,   98.7, -999.0
04-05-2023, 00:41:40,     16,    0.0,    4.6,   0.00,   0.00, 1016.9,   98.6, -999.0
04-05-2023, 00:41:50,     16,    0.0,    4.6,   0.00,   0.00, 1017.0,   98.9, -999.0
04-05-2023, 00:42:00,     16,    0.0,    4.6,   0.00,   0.00, 1016.9,   98.8, -999.0
04-05-2023, 00:42:10,     17,    0.1,    4.5,   0.00,   0.00, 1016.9,   98.7, -999.0
04-05-2023, 00:42:20,     19,    0.1,    4.6,   0.00,   0.00, 1016.9,   98.8, -999.0
04-05-2023, 00:42:30,     19,    0.0,    4.4,   0.00,   0.00, 1016.9,   98.7, -999.0
04-05-2023, 00:42:40,     23,    0.0,    4.4,   0.00,   0.00, 1016.9,   98.6, -999.0
04-05-2023, 00:42:50,     19,    0.0,    4.2,   0.00,   0.00, 1016.9,   98.5, -999.0
04-05-2023, 00:43:00,     16,    0.0,    4.3,   0.00,   0.00, 1016.9,   98.6, -999.0
04-05-2023, 00:43:10,     19,    0.0,    4.3,   0.00,   0.00, 1016.9,   98.7, -999.0
04-05-2023, 00:43:20,     19,    0.0,    4.4,   0.00,   0.00, 1016.9,   98.7, -999.0
04-05-2023, 00:43:30,     19,    0.0,    4.4,   0.00,   0.00, 1016.9,   98.7, -999.0
04-05-2023, 00:43:40,     19,    0.0,    4.5,   0.00,   0.00, 1016.9,   98.6, -999.0
04-05-2023, 00:43:50,     19,    0.0,    4.5,   0.00,   0.00, 1016.9,   98.6, -999.0
04-05-2023, 00:44:00,     19,    0.0,    4.5,   0.00,   0.00, 1016.8,   98.6, -999.0
04-05-2023, 00:44:10,     21,    0.0,    4.5,   0.00,   0.00, 1016.9,   98.7, -999.0
04-05-2023, 00:44:20,     19,    0.0,    4.5,   0.00,   0.00, 1016.9,   98.7, -999.0
04-05-2023, 00:44:30,     19,    0.0,    4.5,   0.00,   0.00, 1016.9,   98.6, -999.0
04-05-2023, 00:44:40,     19,    0.0,    4.5,   0.00,   0.00, 1016.9,   98.7, -999.0
04-05-2023, 00:44:50,     19,    0.0,    4.4,   0.00,   0.00, 1016.9,   98.7, -999.0
04-05-2023, 00:45:00,     19,    0.0,    4.4,   0.00,   0.00, 1016.9,   98.7, -999.0
04-05-2023, 00:45:10,     19,    0.0,    4.4,   0.00,   0.00, 1016.9,   98.7, -999.0
04-05-2023, 00:45:20,     19,    0.0,    4.4,   0.00,   0.00, 1016.9,   98.7, -999.0
04-05-2023, 00:45:30,     19,    0.0,    4.2,   0.00,   0.00, 1016.9,   98.7, -999.0
04-05-2023, 00:45:40,     19,    0.0,    4.4,   0.00,   0.00, 1016.9,   98.7, -999.0
04-05-2023, 00:45:50,     19,    0.0,    4.3,   0.00,   0.00, 1016.8,   98.6, -999.0
04-05-2023, 00:46:00,     21,    0.0,    4.2,   0.00,   0.00, 1016.8,   98.6, -999.0
04-05-2023, 00:46:10,     20,    0.0,    4.4,   0.00,   0.00, 1016.8,   98.6, -999.0
04-05-2023, 00:46:20,     19,    0.0,    4.4,   0.00,   0.00, 1016.8,   98.6, -999.0
04-05-2023, 00:46:29,     19,    0.0,    4.3,   0.00,   0.00, 1016.8,   98.7, -999.0
04-05-2023, 00:46:40,     19,    0.0,    4.4,   0.00,   0.00, 1016.8,   98.6, -999.0
04-05-2023, 00:46:50,     19,    0.0,    4.3,   0.00,   0.00, 1016.8,   98.6, -999.0